Downstream station:
SHEF ID: PRCO2 Canadian River at Purcell, OK
STATION TYPE:
Regulating: Stage = 8.00, Flow = 5164
STAGE RIV-FLOW BAT-LOAD
ft cfs volt
Ccp-Rev Ccp-Rev Ccp-Rev
(US/Central)
06/28 00:00 3.39 17 12.65
06/28 01:00 3.40 18 12.65
06/28 02:00 3.40 18 12.57
06/28 03:00 3.40 18 12.57
06/28 04:00 3.39 17 12.57
06/28 05:00 3.38 16 12.57
06/28 06:00 3.38 16 12.49
06/28 07:00 3.37 15 12.49
06/28 08:00 3.37 15 12.49
06/28 09:00 3.37 15 12.65
06/28 10:00 3.38 16 13.29
06/28 11:00 3.37 15 13.68
06/28 12:00 3.37 15 13.60
06/28 13:00 3.38 16 13.13
06/28 14:00 3.38 16 13.13
06/28 15:00 3.37 15 13.13
06/28 16:00 3.37 15 13.13
06/28 17:00 3.39 17 13.13
06/28 18:00 3.39 17 13.13
06/28 19:00 3.39 17 13.21
06/28 20:00 3.39 17 12.97
06/28 21:00 3.38 16 12.73
06/28 22:00 3.39 17 12.65
06/28 23:00 ---- ---- ----